Location: Vancouver
(49.2500°N, 123.1330°W)
Time: 04:26:04
(UTC-08:00)

ISS - Visible Passes

Search period start: 26 January 2015 00:00
Search period end: 05 February 2015 00:00
Orbit: 402 x 410 km, 51.6° (Epoch: 26 January)

Date Brightness Start Highest point End Pass type
(mag) Time Alt. Az. Time Alt. Az. Time Alt. Az.
26 Jan -0.2 05:00:46 12° SE 05:00:46 12° SE 05:01:07 10° SE visible
26 Jan -0.9 06:33:29 10° SW 06:33:50 10° SW 06:34:16 10° SW visible
27 Jan -0.7 05:44:05 12° S 05:44:05 12° S 05:44:29 10° S visible
